When you browse on this site, cookies collect data to enhance your experience and personalize the content and advertising you see.
Visit our Privacy Policy to learn more. By continuing to use the site, you agree to this use of cookies and data.
  • In Romania
  • List of Countries
  • For 7 days
  • Water Temperature
  • Satellite Maps
  • Weather Map
  • Weather Widgets
  • user-avatar
    Login

    Hourly Weather Poplyahny

    Today, 23 July, Tuesday

    Time Temperature Precipitation Wind Pressure Humidity
    00:00 +16°C° 0 mm 1 mps 751 mmHg 86%
    01:00 +16°C° 0 mm 1 mps 751 mmHg 86%
    02:00 +15°C° 0 mm 1 mps 751 mmHg 92%
    03:00 +15°C° 0 mm 1 mps 751 mmHg 91%
    04:00 +15°C° 0 mm 1 mps 751 mmHg 91%
    05:00 +15°C° 0 mm 2 mps 750 mmHg 91%
    06:00 +17°C° 0 mm 2 mps 750 mmHg 86%
    07:00 +18°C° 0 mm 2 mps 751 mmHg 82%
    08:00 +19°C° 0 mm 2 mps 751 mmHg 77%
    09:00 +21°C° 0.1 mm 2 mps 751 mmHg 73%
    10:00 +22°C° 0.1 mm 3 mps 751 mmHg 68%
    11:00 +24°C° 0.1 mm 3 mps 750 mmHg 63%
    12:00 +24°C° 0.1 mm 3 mps 750 mmHg 62%
    13:00 +24°C° 0.1 mm 3 mps 750 mmHg 62%
    14:00 +25°C° 0.1 mm 3 mps 750 mmHg 61%
    15:00 +25°C° 0.1 mm 3 mps 750 mmHg 61%
    16:00 +25°C° 0.1 mm 3 mps 751 mmHg 61%
    17:00 +25°C° 0.1 mm 3 mps 751 mmHg 62%
    18:00 +23°C° 0.2 mm 2 mps 751 mmHg 70%
    19:00 +20°C° 0.2 mm 2 mps 751 mmHg 78%
    20:00 +18°C° 0.2 mm 2 mps 750 mmHg 87%
    21:00 +18°C° 0 mm 1 mps 751 mmHg 88%
    22:00 +16°C° 0 mm 1 mps 751 mmHg 89%
    23:00 +16°C° 0 mm 1 mps 751 mmHg 91%

    Tomorrow, 24 July, Wednesday

    Time Temperature Precipitation Wind Pressure Humidity
    00:00 +15°C° 0 mm 1 mps 751 mmHg 91%
    01:00 +15°C° 0 mm 1 mps 751 mmHg 92%
    02:00 +14°C° 0 mm 1 mps 751 mmHg 92%
    03:00 +14°C° 0 mm 1 mps 751 mmHg 91%
    04:00 +15°C° 0 mm 1 mps 752 mmHg 91%
    05:00 +15°C° 0 mm 1 mps 752 mmHg 90%
    06:00 +16°C° 0 mm 2 mps 752 mmHg 82%
    07:00 +18°C° 0 mm 2 mps 752 mmHg 75%
    08:00 +19°C° 0 mm 2 mps 752 mmHg 67%
    09:00 +20°C° 0 mm 3 mps 752 mmHg 61%
    10:00 +22°C° 0 mm 4 mps 752 mmHg 56%
    11:00 +23°C° 0 mm 4 mps 753 mmHg 50%
    12:00 +23°C° 0 mm 4 mps 753 mmHg 50%
    13:00 +25°C° 0 mm 5 mps 752 mmHg 49%
    14:00 +25°C° 0 mm 5 mps 752 mmHg 48%
    15:00 +23°C° 0 mm 5 mps 752 mmHg 50%
    16:00 +23°C° 0 mm 4 mps 752 mmHg 53%
    17:00 +22°C° 0 mm 4 mps 753 mmHg 55%
    18:00 +21°C° 0 mm 3 mps 752 mmHg 63%
    19:00 +19°C° 0 mm 2 mps 752 mmHg 70%
    20:00 +19°C° 0 mm 1 mps 752 mmHg 77%
    21:00 +18°C° 0 mm 1 mps 752 mmHg 78%
    22:00 +18°C° 0 mm 1 mps 753 mmHg 78%
    23:00 +18°C° 0 mm 1 mps 753 mmHg 78%

    Day after tomorrow, 25 July, Thursday

    Time Temperature Precipitation Wind Pressure Humidity
    00:00 +16°C° 0 mm 1 mps 753 mmHg 82%
    01:00 +16°C° 0 mm 1 mps 753 mmHg 85%
    02:00 +15°C° 0 mm 1 mps 753 mmHg 89%
    03:00 +15°C° 0.1 mm 1 mps 753 mmHg 91%
    04:00 +14°C° 0.1 mm 2 mps 753 mmHg 92%
    05:00 +14°C° 0.1 mm 2 mps 753 mmHg 94%
    06:00 +15°C° 0 mm 2 mps 753 mmHg 89%
    07:00 +16°C° 0 mm 2 mps 753 mmHg 83%
    08:00 +17°C° 0 mm 2 mps 753 mmHg 78%
    09:00 +19°C° 0 mm 2 mps 752 mmHg 71%
    10:00 +20°C° 0 mm 2 mps 752 mmHg 65%
    11:00 +21°C° 0 mm 3 mps 752 mmHg 58%
    12:00 +22°C° 0.1 mm 3 mps 752 mmHg 59%
    13:00 +22°C° 0.1 mm 3 mps 752 mmHg 60%
    14:00 +22°C° 0.1 mm 3 mps 752 mmHg 60%
    15:00 +21°C° 0.1 mm 3 mps 752 mmHg 70%
    16:00 +19°C° 0.1 mm 3 mps 752 mmHg 79%
    17:00 +18°C° 0.1 mm 2 mps 752 mmHg 88%
    18:00 +17°C° 0 mm 2 mps 752 mmHg 90%
    19:00 +17°C° 0 mm 2 mps 753 mmHg 92%
    20:00 +16°C° 0 mm 2 mps 753 mmHg 94%
    21:00 +16°C° 0 mm 2 mps 753 mmHg 95%
    22:00 +15°C° 0 mm 2 mps 753 mmHg 97%
    23:00 +15°C° 0 mm 2 mps 753 mmHg 98%

    26 July, Friday

    Time Temperature Precipitation Wind Pressure Humidity
    00:00 +15°C° 0 mm 2 mps 753 mmHg 99%
    01:00 +15°C° 0 mm 2 mps 754 mmHg 99%
    02:00 +15°C° 0 mm 2 mps 754 mmHg 99%
    03:00 +15°C° 0 mm 2 mps 754 mmHg 99%
    04:00 +15°C° 0 mm 2 mps 754 mmHg 98%
    05:00 +16°C° 0 mm 2 mps 755 mmHg 98%
    06:00 +17°C° 0 mm 2 mps 755 mmHg 94%
    07:00 +18°C° 0 mm 3 mps 755 mmHg 90%
    08:00 +20°C° 0 mm 3 mps 755 mmHg 85%
    09:00 +21°C° 0 mm 3 mps 755 mmHg 78%
    10:00 +24°C° 0 mm 3 mps 755 mmHg 71%
    11:00 +25°C° 0 mm 3 mps 755 mmHg 63%
    12:00 +26°C° 0.2 mm 3 mps 755 mmHg 64%
    13:00 +27°C° 0.2 mm 3 mps 755 mmHg 64%
    14:00 +27°C° 0.2 mm 3 mps 755 mmHg 64%
    15:00 +27°C° 0.4 mm 3 mps 754 mmHg 70%
    16:00 +27°C° 0.4 mm 2 mps 754 mmHg 77%
    17:00 +26°C° 0.4 mm 2 mps 754 mmHg 83%
    18:00 +25°C° 0.3 mm 2 mps 754 mmHg 86%
    19:00 +23°C° 0.3 mm 2 mps 754 mmHg 90%
    20:00 +21°C° 0.3 mm 2 mps 754 mmHg 93%
    21:00 +20°C° 0 mm 2 mps 754 mmHg 95%
    22:00 +20°C° 0 mm 2 mps 754 mmHg 96%
    23:00 +19°C° 0 mm 2 mps 755 mmHg 97%

    27 July, Saturday

    Time Temperature Precipitation Wind Pressure Humidity
    00:00 +19°C° 0 mm 2 mps 754 mmHg 97%
    01:00 +18°C° 0 mm 2 mps 754 mmHg 97%
    02:00 +18°C° 0 mm 2 mps 754 mmHg 97%
    03:00 +18°C° 0 mm 2 mps 754 mmHg 97%
    04:00 +18°C° 0 mm 2 mps 754 mmHg 97%
    05:00 +18°C° 0 mm 2 mps 754 mmHg 97%
    06:00 +19°C° 0 mm 2 mps 754 mmHg 93%
    07:00 +20°C° 0 mm 3 mps 754 mmHg 89%
    08:00 +22°C° 0 mm 3 mps 754 mmHg 85%
    09:00 +25°C° 0 mm 3 mps 754 mmHg 74%
    10:00 +27°C° 0 mm 4 mps 754 mmHg 64%
    11:00 +29°C° 0 mm 4 mps 754 mmHg 53%
    12:00 +29°C° 0 mm 4 mps 753 mmHg 51%
    13:00 +29°C° 0 mm 4 mps 753 mmHg 50%
    14:00 +30°C° 0 mm 4 mps 752 mmHg 48%
    15:00 +29°C° 0 mm 3 mps 752 mmHg 54%
    16:00 +28°C° 0 mm 3 mps 752 mmHg 60%
    17:00 +28°C° 0 mm 2 mps 752 mmHg 65%
    18:00 +26°C° 0.1 mm 2 mps 752 mmHg 72%
    19:00 +24°C° 0.1 mm 2 mps 752 mmHg 78%
    20:00 +23°C° 0.1 mm 2 mps 752 mmHg 84%
    21:00 +21°C° 0 mm 2 mps 752 mmHg 86%
    22:00 +21°C° 0 mm 2 mps 752 mmHg 87%
    23:00 +20°C° 0 mm 2 mps 752 mmHg 89%

    28 July, Sunday

    Time Temperature Precipitation Wind Pressure Humidity
    00:00 +19°C° 0 mm 2 mps 752 mmHg 91%
    01:00 +19°C° 0 mm 2 mps 751 mmHg 93%
    02:00 +18°C° 0 mm 2 mps 751 mmHg 94%
    03:00 +18°C° 0 mm 3 mps 751 mmHg 94%
    04:00 +18°C° 0 mm 3 mps 752 mmHg 93%
    05:00 +18°C° 0 mm 3 mps 752 mmHg 93%
    06:00 +18°C° 0 mm 4 mps 752 mmHg 85%
    07:00 +18°C° 0 mm 4 mps 752 mmHg 78%
    08:00 +18°C° 0 mm 4 mps 752 mmHg 70%
    09:00 +19°C° 0 mm 4 mps 752 mmHg 66%
    10:00 +20°C° 0 mm 4 mps 752 mmHg 62%
    11:00 +20°C° 0 mm 4 mps 752 mmHg 58%
    12:00 +21°C° 0 mm 4 mps 752 mmHg 55%
    13:00 +21°C° 0 mm 4 mps 752 mmHg 51%
    14:00 +21°C° 0 mm 4 mps 752 mmHg 47%
    15:00 +21°C° 0 mm 4 mps 752 mmHg 48%
    16:00 +20°C° 0 mm 4 mps 752 mmHg 49%
    17:00 +20°C° 0 mm 4 mps 752 mmHg 50%
    18:00 +18°C° 0 mm 4 mps 752 mmHg 58%
    19:00 +16°C° 0 mm 3 mps 752 mmHg 65%
    20:00 +14°C° 0 mm 2 mps 752 mmHg 72%
    21:00 +13°C° 0 mm 3 mps 752 mmHg 73%
    22:00 +12°C° 0 mm 3 mps 753 mmHg 74%
    23:00 +11°C° 0 mm 3 mps 753 mmHg 75%
    Show more